Home   Weather   Salem   Past weeks
Flag for USA

Past Weather in Salem, USA — Yesterday and Last 2 Weeks

Now
39 °F

Overcast.


Feels Like: 39 °F
Forecast: 39 / 32 °F
Wind: No wind

Location: Kenosha Regional Airport

Current Time: Nov 18, 2019 at 6:17:53 pm

Latest Report: Nov 18, 2019 at 4:53 pm


Visibility: 10 mi

Pressure: 29.76 "Hg

Humidity: 79%

Dew Point: 33 °F

Location of SalemLocation

Past Weather in Salem — Graph

°F

Salem Temperature Yesterday

Maximum temperature yesterday: 39 °F (at 1:53 pm)
Minimum temperature yesterday: 31 °F (at 2:53 am)
Average temperature yesterday: 36 °F

High & Low Weather Summary for the Past Weeks

 TemperatureHumidityPressure
High50 °F (Nov 4, 10:37 am)100% (Nov 4, 12:53 am)30.53 "Hg (Nov 4, 12:53 am)
Low7 °F (Nov 12, 6:53 am)45% (Nov 8, 12:53 pm)29.74 "Hg (Nov 18, 2:00 pm)
Average30 °F75%30.19 "Hg
* Reported Nov 3 4:53 pm — Nov 18 4:53 pm, Salem. Weather by CustomWeather, © 2019

Note: Actual official high and low records may vary slightly from our data, if they occured in-between our weather recording intervals... More about our weather records

Advertising

Salem Weather History for the Previous 24 Hours

Scroll right to see more
 ConditionsComfort  
Time TempWeatherWind HumidityBarometerVisibility
4:53 pm
Mon, Nov 18
39 °FOvercast.No wind79%29.76 "Hg10 mi
3:53 pm39 °FOvercast.7 mph82%29.77 "Hg10 mi
2:53 pm40 °FMostly cloudy.9 mph80%29.76 "Hg10 mi
2:00 pm40 °FMostly cloudy.6 mph83%29.74 "Hg9 mi
12:53 pm40 °FFog.6 mph86%29.76 "Hg6 mi
11:53 am40 °FLow clouds.6 mph83%29.78 "Hg5 mi
10:53 am39 °FFog.8 mph86%29.80 "Hg3 mi
9:53 am38 °FFog.8 mph90%29.82 "Hg2 mi
9:28 am37 °FFog.8 mph93%29.80 "Hg2 mi
9:20 am37 °FFog.8 mph93%29.80 "Hg2 mi
8:53 am37 °FFog.8 mph93%29.82 "Hg1 mi
7:53 am36 °FFog.5 mph97%29.81 "Hg1 mi
7:32 am36 °FFog.5 mph92%29.80 "Hg1 mi
6:53 am36 °FFog.5 mph92%29.80 "Hg1 mi
5:53 am35 °FFog.5 mph96%29.80 "Hg1 mi
4:53 am35 °FFog.3 mph96%29.80 "Hg1 mi
4:05 am35 °FFog.5 mph96%29.79 "Hg1 mi
3:53 am35 °FFog.5 mph96%29.80 "Hg1 mi
3:11 am35 °FFog.5 mph96%29.79 "Hg1 mi
2:53 am35 °FFog.8 mph96%29.81 "Hg1 mi
2:21 am35 °FFog.6 mph96%29.79 "Hg2 mi
1:53 am36 °FFog.6 mph92%29.81 "Hg2 mi
1:20 am36 °FFog.5 mph92%29.78 "Hg2 mi
12:53 am36 °FFog.3 mph92%29.80 "Hg2 mi
11:53 pm
Sun, Nov 17
37 °FFog.No wind93%29.81 "Hg1 mi
10:53 pm36 °FFog.No wind97%29.83 "Hg1 mi
10:36 pm36 °FLight rain. Fog.No wind97%29.82 "Hg1 mi
10:20 pm37 °FLight rain. Fog.No wind93%29.83 "Hg2 mi
10:10 pm36 °FLight rain. Fog.3 mph92%29.83 "Hg2 mi
9:53 pm36 °FLight rain. Fog.5 mph92%29.85 "Hg2 mi
9:16 pm37 °FLight rain. Fog.3 mph89%29.84 "Hg2 mi
8:53 pm37 °FLight rain. Fog.5 mph89%29.86 "Hg2 mi
8:12 pm38 °FLight rain. Fog.5 mph90%29.86 "Hg2 mi
7:53 pm38 °FLight rain. Fog.5 mph90%29.88 "Hg2 mi
6:53 pm39 °FLight rain. Mostly cloudy.3 mph82%29.88 "Hg4 mi
Weather by CustomWeather, © 2019

See weather overview